Schneifelwetter: Wetterstation Hallschlag, 537 m . NN
Wetterdaten: Freitag, 19.02.2010
Datum Zeit Temp. A. Feuchte A. Luftdruck Regen Wind Richtung Richtung Sonnenschein Helligkeit T Regen Taupunkt Windchill
19.02.2010 00:00 1,9 C 93 % 994 hPa 0,0 l/m 16,8 km/h (3 Bft) S45 190 0 min 0 lux 0,00 min 0,9 C -5,7 C
19.02.2010 00:15 1,9 C 93 % 994 hPa 0,0 l/m 18,1 km/h (3 Bft) S22.5 185 0 min 0 lux 0,00 min 0,9 C -6,3 C
19.02.2010 00:30 1,9 C 93 % 994 hPa 0,0 l/m 19,3 km/h (3 Bft) S-SW45 195 0 min 0 lux 0,00 min 0,9 C -6,9 C
19.02.2010 00:45 2,0 C 93 % 994 hPa 0,0 l/m 25,6 km/h (4 Bft) S45 185 0 min 0 lux 0,00 min 1,0 C -9,2 C
19.02.2010 01:01 1,9 C 93 % 994 hPa 0,0 l/m 22,3 km/h (4 Bft) S-SW45 195 0 min 0 lux 0,00 min 0,9 C -8,1 C
19.02.2010 01:16 1,9 C 93 % 994 hPa 0,0 l/m 28,3 km/h (4 Bft) S-SW45 195 0 min 0 lux 0,00 min 0,9 C -10,2 C
19.02.2010 01:31 2,1 C 93 % 994 hPa 0,0 l/m 28,1 km/h (4 Bft) S-SW45 195 0 min 0 lux 0,00 min 1,1 C -9,9 C
19.02.2010 01:46 2,0 C 92 % 994 hPa 0,0 l/m 31,9 km/h (5 Bft) S-SW45 210 0 min 0 lux 0,00 min 0,8 C -11,1 C
19.02.2010 02:01 1,7 C 93 % 994 hPa 0,0 l/m 17,6 km/h (3 Bft) S-SW45 200 0 min 0 lux 0,00 min 0,7 C -6,3 C
19.02.2010 02:16 1,7 C 93 % 993 hPa 0,0 l/m 22,1 km/h (4 Bft) S45 180 0 min 0 lux 0,00 min 0,7 C -8,3 C
19.02.2010 02:31 1,5 C 93 % 993 hPa 0,0 l/m 20,3 km/h (4 Bft) S22.5 180 0 min 0 lux 0,00 min 0,5 C -7,8 C
19.02.2010 02:46 1,3 C 94 % 993 hPa 0,0 l/m 24,0 km/h (4 Bft) S22.5 185 0 min 0 lux 0,00 min 0,4 C -9,6 C
19.02.2010 03:01 1,2 C 94 % 993 hPa 0,0 l/m 21,6 km/h (4 Bft) S22.5 180 0 min 0 lux 0,00 min 0,3 C -8,8 C
19.02.2010 03:16 1,2 C 95 % 993 hPa 0,0 l/m 20,8 km/h (4 Bft) S22.5 185 0 min 0 lux 0,00 min 0,5 C -8,4 C
19.02.2010 03:31 1,5 C 95 % 993 hPa 0,0 l/m 19,8 km/h (3 Bft) S22.5 180 0 min 0 lux 0,00 min 0,8 C -7,6 C
19.02.2010 03:46 1,5 C 94 % 993 hPa 0,0 l/m 22,0 km/h (4 Bft) S45 185 0 min 0 lux 0,00 min 0,6 C -8,5 C
19.02.2010 04:01 1,3 C 94 % 993 hPa 0,0 l/m 22,3 km/h (4 Bft) S22.5 180 0 min 0 lux 0,00 min 0,4 C -8,9 C
19.02.2010 04:16 1,1 C 94 % 992 hPa 0,0 l/m 21,1 km/h (4 Bft) S22.5 175 0 min 0 lux 0,00 min 0,2 C -8,7 C
19.02.2010 04:31 1,0 C 95 % 992 hPa 0,0 l/m 22,7 km/h (4 Bft) S22.5 185 0 min 0 lux 0,00 min 0,3 C -9,5 C
19.02.2010 04:46 1,2 C 95 % 992 hPa 0,0 l/m 19,6 km/h (3 Bft) S45 185 0 min 0 lux 0,00 min 0,5 C -7,9 C
19.02.2010 05:01 1,2 C 95 % 992 hPa 0,0 l/m 22,3 km/h (4 Bft) S45 190 0 min 0 lux 0,00 min 0,5 C -9,1 C
19.02.2010 05:16 1,2 C 95 % 992 hPa 0,0 l/m 16,9 km/h (3 Bft) S22.5 185 0 min 0 lux 0,00 min 0,5 C -6,6 C
19.02.2010 05:31 1,2 C 95 % 991 hPa 0,0 l/m 20,0 km/h (4 Bft) S-SW45 205 0 min 0 lux 0,00 min 0,5 C -8,1 C
19.02.2010 05:46 1,2 C 95 % 991 hPa 0,0 l/m 23,4 km/h (4 Bft) S45 190 0 min 0 lux 0,00 min 0,5 C -9,5 C
19.02.2010 06:00 1,2 C 96 % 991 hPa 0,0 l/m 23,8 km/h (4 Bft) S-SW45 205 0 min 0 lux 0,00 min 0,6 C -9,6 C
19.02.2010 06:15 1,2 C 96 % 991 hPa 0,0 l/m 30,0 km/h (5 Bft) S45 190 0 min 0 lux 0,00 min 0,6 C -11,7 C
19.02.2010 06:30 1,2 C 96 % 991 hPa 0,0 l/m 25,1 km/h (4 Bft) S-SW45 200 0 min 0 lux 0,00 min 0,6 C -10,1 C
19.02.2010 06:45 1,3 C 95 % 991 hPa 0,0 l/m 27,5 km/h (4 Bft) SW45 220 0 min 0 lux 0,00 min 0,6 C -10,8 C
19.02.2010 07:00 1,4 C 95 % 991 hPa 0,0 l/m 35,4 km/h (5 Bft) SW45 230 0 min 0 lux 0,00 min 0,7 C -12,9 C
19.02.2010 07:15 1,4 C 94 % 990 hPa 0,0 l/m 23,6 km/h (4 Bft) SW45 220 0 min 0 lux 0,00 min 0,5 C -9,3 C
19.02.2010 07:30 1,5 C 94 % 990 hPa 0,0 l/m 28,7 km/h (4 Bft) SW45 215 0 min 173 lux 0,00 min 0,6 C -10,9 C
19.02.2010 07:45 1,4 C 94 % 990 hPa 0,0 l/m 29,8 km/h (5 Bft) SW45 215 0 min 424 lux 0,00 min 0,5 C -11,4 C
19.02.2010 08:00 1,5 C 94 % 990 hPa 0,0 l/m 27,0 km/h (4 Bft) SW45 215 0 min 1,08 klux 0,00 min 0,6 C -10,4 C
19.02.2010 08:15 1,4 C 94 % 991 hPa 0,0 l/m 27,1 km/h (4 Bft) SW45 215 0 min 2,10 klux 0,00 min 0,5 C -10,5 C
19.02.2010 08:30 1,5 C 94 % 991 hPa 0,0 l/m 28,5 km/h (4 Bft) SW22.5 220 0 min 2,30 klux 0,00 min 0,6 C -10,8 C
19.02.2010 08:46 1,5 C 94 % 991 hPa 0,0 l/m 27,5 km/h (4 Bft) SW45 225 0 min 4,54 klux 0,00 min 0,6 C -10,5 C
19.02.2010 09:01 1,5 C 94 % 991 hPa 0,0 l/m 23,2 km/h (4 Bft) SW45 220 0 min 5,57 klux 0,00 min 0,6 C -9,0 C
19.02.2010 09:15 1,6 C 93 % 991 hPa 0,0 l/m 21,1 km/h (4 Bft) W-SW45 245 0 min 8,56 klux 0,00 min 0,6 C -8,0 C
19.02.2010 09:30 1,8 C 92 % 991 hPa 0,0 l/m 23,1 km/h (4 Bft) SW22.5 235 0 min 9,3 klux 0,00 min 0,6 C -8,6 C
19.02.2010 09:45 1,9 C 91 % 991 hPa 0,0 l/m 25,0 km/h (4 Bft) W-SW45 245 0 min 10,1 klux 0,00 min 0,6 C -9,1 C
19.02.2010 10:00 2,1 C 90 % 991 hPa 0,0 l/m 25,7 km/h (4 Bft) SW45 215 0 min 15,7 klux 0,00 min 0,6 C -9,1 C
19.02.2010 10:15 2,2 C 90 % 991 hPa 0,0 l/m 22,4 km/h (4 Bft) SW45 220 0 min 16,2 klux 0,00 min 0,7 C -7,8 C
19.02.2010 10:31 2,3 C 89 % 991 hPa 0,0 l/m 26,1 km/h (4 Bft) SW22.5 220 0 min 19,7 klux 0,00 min 0,7 C -9,0 C
19.02.2010 10:46 2,7 C 88 % 991 hPa 0,0 l/m 25,7 km/h (4 Bft) SW45 235 0 min 24,7 klux 0,00 min 0,9 C -8,3 C
19.02.2010 11:00 3,1 C 86 % 991 hPa 0,0 l/m 20,5 km/h (4 Bft) SW45 225 0 min 26,0 klux 0,00 min 1,0 C -5,8 C
19.02.2010 11:15 2,9 C 85 % 991 hPa 0,0 l/m 34,3 km/h (5 Bft) W-SW22.5 250 0 min 22,6 klux 0,00 min 0,6 C -10,4 C
19.02.2010 11:30 2,8 C 86 % 991 hPa 0,0 l/m 25,5 km/h (4 Bft) SW45 230 15 min 28,5 klux 0,00 min 0,7 C -8,1 C
19.02.2010 11:45 3,4 C 85 % 991 hPa 0,0 l/m 27,3 km/h (4 Bft) SW45 230 15 min 43,1 klux 0,00 min 1,1 C -7,8 C
19.02.2010 12:00 3,8 C 83 % 991 hPa 0,0 l/m 25,2 km/h (4 Bft) W-SW22.5 250 15 min 60,5 klux 0,00 min 1,2 C -6,6 C
19.02.2010 12:16 3,7 C 81 % 990 hPa 0,0 l/m 30,2 km/h (5 Bft) SW45 225 16 min 39,1 klux 0,00 min 0,7 C -8,3 C
19.02.2010 12:31 3,2 C 81 % 990 hPa 0,0 l/m 25,3 km/h (4 Bft) SW45 235 0 min 24,3 klux 0,00 min 0,3 C -7,5 C
19.02.2010 12:45 3,3 C 81 % 990 hPa 0,0 l/m 23,8 km/h (4 Bft) SW45 225 0 min 25,6 klux 0,00 min 0,4 C -6,8 C
19.02.2010 13:00 2,9 C 82 % 990 hPa 0,0 l/m 21,1 km/h (4 Bft) SW45 220 0 min 21,7 klux 0,00 min 0,1 C -6,3 C
19.02.2010 13:15 2,8 C 83 % 990 hPa 0,0 l/m 29,6 km/h (5 Bft) W-SW45 255 0 min 18,8 klux 0,00 min 0,2 C -9,4 C
19.02.2010 13:30 2,3 C 85 % 990 hPa 0,0 l/m 30,5 km/h (5 Bft) W-SW45 255 0 min 19,0 klux 0,00 min 0,0 C -10,3 C
19.02.2010 13:46 2,2 C 85 % 990 hPa 0,0 l/m 26,2 km/h (4 Bft) W45 260 0 min 22,3 klux 0,00 min -0,1 C -9,1 C
19.02.2010 14:01 1,8 C 85 % 991 hPa 0,0 l/m 30,9 km/h (5 Bft) W22.5 265 0 min 15,0 klux 0,00 min -0,4 C -11,1 C
19.02.2010 14:15 1,7 C 83 % 991 hPa 0,0 l/m 32,3 km/h (5 Bft) W-SW22.5 255 0 min 18,0 klux 0,00 min -0,9 C -11,7 C
19.02.2010 14:30 1,3 C 84 % 991 hPa 0,0 l/m 34,9 km/h (5 Bft) W-SW45 250 0 min 7,74 klux 0,00 min -1,1 C -12,9 C
19.02.2010 14:45 0,8 C 85 % 991 hPa 0,0 l/m 32,5 km/h (5 Bft) W-SW22.5 255 0 min 5,47 klux 0,00 min -1,4 C -13,0 C
19.02.2010 15:00 0,7 C 86 % 991 hPa 0,0 l/m 28,9 km/h (5 Bft) W45 265 0 min 9,4 klux 0,00 min -1,4 C -12,1 C
19.02.2010 15:15 0,8 C 84 % 991 hPa 0,0 l/m 31,2 km/h (5 Bft) W45 260 0 min 15,2 klux 0,00 min -1,6 C -12,6 C
19.02.2010 15:31 0,7 C 84 % 992 hPa 0,0 l/m 25,6 km/h (4 Bft) W22.5 265 0 min 8,96 klux 0,00 min -1,7 C -11,0 C
19.02.2010 15:46 0,6 C 84 % 992 hPa 0,0 l/m 24,9 km/h (4 Bft) W22.5 260 0 min 7,49 klux 0,00 min -1,8 C -10,9 C
19.02.2010 16:00 0,6 C 85 % 992 hPa 0,0 l/m 24,7 km/h (4 Bft) W45 260 0 min 9,3 klux 0,00 min -1,6 C -10,8 C
19.02.2010 16:15 0,5 C 85 % 992 hPa 0,0 l/m 26,0 km/h (4 Bft) W-SW22.5 255 0 min 8,53 klux 0,00 min -1,7 C -11,4 C
19.02.2010 16:30 0,4 C 86 % 992 hPa 0,0 l/m 34,6 km/h (5 Bft) W-SW45 255 0 min 8,01 klux 0,00 min -1,7 C -14,1 C
19.02.2010 16:45 0,3 C 86 % 992 hPa 0,0 l/m 25,1 km/h (4 Bft) W-SW22.5 250 0 min 7,81 klux 0,00 min -1,8 C -11,3 C
19.02.2010 17:00 0,3 C 87 % 992 hPa 0,0 l/m 23,1 km/h (4 Bft) W-SW22.5 250 0 min 8,17 klux 0,00 min -1,6 C -10,6 C
19.02.2010 17:16 0,2 C 87 % 992 hPa 0,0 l/m 19,8 km/h (3 Bft) W-SW22.5 250 0 min 6,94 klux 0,00 min -1,7 C -9,3 C
19.02.2010 17:31 0,0 C 88 % 992 hPa 0,0 l/m 21,6 km/h (4 Bft) W-SW22.5 245 0 min 2,45 klux 0,00 min -1,7 C -10,4 C
19.02.2010 17:45 -0,4 C 89 % 992 hPa 0,0 l/m 25,7 km/h (4 Bft) W-SW22.5 255 0 min 1,63 klux 0,00 min -2,0 C -12,5 C
19.02.2010 18:00 -0,6 C 91 % 992 hPa 0,0 l/m 21,3 km/h (4 Bft) W22.5 260 0 min 356 lux 0,00 min -1,9 C -11,0 C
19.02.2010 18:15 -0,7 C 92 % 993 hPa 0,0 l/m 26,1 km/h (4 Bft) W22.5 265 0 min 151 lux 0,00 min -1,8 C -13,1 C
19.02.2010 18:30 -0,8 C 92 % 993 hPa 0,0 l/m 24,0 km/h (4 Bft) W22.5 270 0 min 30 lux 0,00 min -1,9 C -12,4 C
19.02.2010 18:46 -0,9 C 93 % 993 hPa 0,0 l/m 23,6 km/h (4 Bft) W22.5 270 0 min 3 lux 0,00 min -1,9 C -12,4 C
19.02.2010 19:01 -1,0 C 92 % 993 hPa 0,0 l/m 29,8 km/h (5 Bft) W-SW45 255 0 min 0 lux 0,00 min -2,1 C -14,7 C
19.02.2010 19:15 -1,1 C 91 % 993 hPa 0,0 l/m 24,8 km/h (4 Bft) W22.5 265 0 min 0 lux 0,00 min -2,4 C -13,1 C
19.02.2010 19:30 -1,1 C 91 % 994 hPa 0,0 l/m 31,8 km/h (5 Bft) W22.5 265 0 min 0 lux 0,00 min -2,4 C -15,5 C
19.02.2010 19:45 -1,1 C 91 % 994 hPa 0,0 l/m 26,9 km/h (4 Bft) W22.5 260 0 min 0 lux 0,00 min -2,4 C -13,9 C
19.02.2010 20:00 -1,2 C 92 % 994 hPa 0,0 l/m 19,1 km/h (3 Bft) W-SW45 255 0 min 0 lux 0,00 min -2,3 C -10,7 C
19.02.2010 20:15 -1,4 C 91 % 994 hPa 0,0 l/m 17,8 km/h (3 Bft) W22.5 265 0 min 0 lux 0,00 min -2,7 C -10,3 C
19.02.2010 20:31 -1,5 C 92 % 994 hPa 0,0 l/m 19,5 km/h (3 Bft) W22.5 260 0 min 0 lux 0,00 min -2,6 C -11,3 C
19.02.2010 20:46 -1,5 C 92 % 994 hPa 0,0 l/m 16,8 km/h (3 Bft) W22.5 265 0 min 0 lux 0,00 min -2,6 C -9,9 C
19.02.2010 21:00 -1,8 C 92 % 994 hPa 0,0 l/m 19,6 km/h (3 Bft) W22.5 270 0 min 0 lux 0,00 min -2,9 C -11,8 C
19.02.2010 21:15 -1,9 C 93 % 995 hPa 0,0 l/m 21,1 km/h (4 Bft) W22.5 265 0 min 0 lux 0,00 min -2,9 C -12,6 C
19.02.2010 21:30 -1,8 C 93 % 995 hPa 0,0 l/m 21,0 km/h (4 Bft) W45 260 0 min 0 lux 0,00 min -2,8 C -12,4 C
19.02.2010 21:45 -1,8 C 93 % 995 hPa 0,0 l/m 16,5 km/h (3 Bft) W22.5 265 0 min 0 lux 0,00 min -2,8 C -10,1 C
19.02.2010 22:00 -1,9 C 93 % 995 hPa 0,0 l/m 16,9 km/h (3 Bft) W22.5 260 0 min 0 lux 0,00 min -2,9 C -10,4 C
19.02.2010 22:16 -1,9 C 93 % 995 hPa 0,0 l/m 14,5 km/h (3 Bft) W22.5 270 0 min 0 lux 0,00 min -2,9 C -9,0 C
19.02.2010 22:31 -2,0 C 94 % 995 hPa 0,0 l/m 18,0 km/h (3 Bft) W-SW22.5 250 0 min 0 lux 0,00 min -2,8 C -11,2 C
19.02.2010 22:45 -1,8 C 94 % 995 hPa 0,0 l/m 16,7 km/h (3 Bft) W-SW 255 0 min 0 lux 0,00 min -2,6 C -10,2 C
19.02.2010 23:00 -1,9 C 94 % 995 hPa 0,0 l/m 21,2 km/h (4 Bft) W-SW45 245 0 min 0 lux 0,00 min -2,7 C -12,7 C
19.02.2010 23:15 -2,2 C 93 % 995 hPa 0,0 l/m 14,6 km/h (3 Bft) W-SW22.5 240 0 min 0 lux 0,00 min -3,2 C -9,4 C
19.02.2010 23:30 -2,6 C 93 % 995 hPa 0,0 l/m 10,3 km/h (2 Bft) W-SW 245 0 min 0 lux 0,00 min -3,6 C -6,6 C
19.02.2010 23:46 -2,5 C 94 % 995 hPa 0,0 l/m 14,9 km/h (3 Bft) W-SW22.5 255 0 min 0 lux 0,00 min -3,3 C -9,9 C
_ Min-Zeit 23:30 12:16 07:15 - 23:30 - - - - - 23:30 19:30
Minimum _ -2,6 C 81 % 990 hPa - 10,3 km/h (2 Bft) - - - - - -3,6 C -15,5 C
_ Max-Zeit 12:00 06:00 21:15 00:00 07:00 - - 12:16 12:00 00:00 12:00 00:00
Maximum _ 3,8 C 96 % 995 hPa 0,0 l/m 35,4 km/h
SW (5 Bft)
- - 16 min 60,5 klux 0,00 min 1,2 C -5,7 C
Durchschnitt _ 0,8 C 91 % 992 hPa #0,0 l/m 24,0 km/h (4 Bft) W-SW - #1:01 h 6,38 klux #0 min. -0,5 C -10,0 C